Location: Chatou
(48.8898°N, 2.1586°E)
Time: 21:11:54
(UTC+00:00)

STRAND 1 - Pass Details

Date: 09 December 2023
Orbit: 766 x 778 km, 98.4° (Epoch: 28 February)

Event Time Altitude Azimuth Distance (km) Brightness Sun altitude
Exits shadow 19:04:41 60° 251° (WSW) 882 ? -30.1°
Drops below altitude 10° 19:09:07 10° 208° (SSW) 2,305 ? -30.9°
Sets 19:11:25 0° 205° (SSW) 3,229 ? -31.3°
